Lewistown, MT

11:30 AM MDT on July 25, 2016 (GMT -0600)
Lewistown Municipal

Weather History for KLWT - May, 2013

Change the Weather History Date:

Tuesday, May 14, 2013

  Actual Average Record
Temperature  
Mean Temperature 57 °F 50 °F  
Max Temperature 67 °F 62 °F 98 °F (1931)
Min Temperature 46 °F 37 °F 25 °F (1974)
Degree Days  
Heating Degree Days 8 16  
Month to date heating degree days 193 245  
Since 1 July heating degree days 7606 7752  
Cooling Degree Days 0 0  
Month to date cooling degree days 3 0  
Year to date cooling degree days 3 0  
Growing Degree Days 6 (Base 50)    
Moisture  
Dew Point 26 °F    
Average Humidity 46    
Maximum Humidity 76    
Minimum Humidity 15    
Precipitation  
Precipitation 0.00 in 0.09 in 0.87 in (1913)
Month to date precipitation 0.27 1.06  
Year to date precipitation 3.63 4.47  
Snow  
Snow 0.00 in - - ()
Snow Depth 0.00 in    
Sea Level Pressure  
Sea Level Pressure 29.87 in    
Wind  
Wind Speed 12 mph (WNW)    
Max Wind Speed 25 mph    
Max Gust Speed 32 mph    
Visibility 10 miles    
Events      
T = Trace of Precipitation, MM = Missing Value Source: NWS Daily Summary

Daily Weather History Graph

Daily Weather History Graph

Search for Another Location

Airport or City:

Trip Planner

Search our weather history database for the weather conditions in past years. The results will help you decide how hot, cold, wet, or windy it might be!

Date:

Astronomy

May. 14, 2013 Rise Set
Actual Time 5:43 AM MDT 8:46 PM MDT
Civil Twilight 5:07 AM MDT 9:22 PM MDT
Nautical Twilight 4:20 AM MDT 10:08 PM MDT
Astronomical Twilight 3:24 AM MDT 11:05 PM MDT
Moon 9:26 AM MDT (5/14) No Moon Set
Length of Visible Light 16h 14m
Length of Day
15h 02m
Waxing Crescent, 19% of the Moon is Illuminated
May 14
Waxing Crescent
May 17
First Quarter
May 24
Full
May 31
Last Quarter
Jun 8
New

Hourly Weather History & Observations

Time (MDT) Temp. Windchill Dew Point Humidity Pressure Visibility Wind Dir Wind Speed Gust Speed Precip Events Conditions
12:54 AM 52.0 °F - 39.0 °F 61% 29.78 in 10.0 mi Calm Calm - N/A   Clear
1:54 AM 46.0 °F 41.0 °F 39.0 °F 76% 29.78 in 10.0 mi SSW 10.4 mph - N/A   Clear
2:54 AM 48.9 °F - 39.0 °F 69% 29.78 in 10.0 mi West 10.4 mph - N/A   Clear
3:54 AM 48.0 °F - 34.0 °F 58% 29.82 in 10.0 mi West 10.4 mph - N/A   Clear
4:54 AM 46.9 °F - 28.9 °F 50% 29.83 in 10.0 mi West 12.7 mph - N/A   Clear
5:54 AM 48.0 °F - 28.0 °F 46% 29.83 in 10.0 mi WNW 13.8 mph - N/A   Clear
6:54 AM 50.0 °F - 28.0 °F 43% 29.86 in 10.0 mi West 15.0 mph - N/A   Clear
7:54 AM 53.1 °F - 28.9 °F 40% 29.88 in 10.0 mi West 17.3 mph 23.0 mph N/A   Clear
8:54 AM 57.9 °F - 25.0 °F 28% 29.88 in 10.0 mi WNW 19.6 mph 27.6 mph N/A   Clear
9:54 AM 59.0 °F - 25.0 °F 27% 29.91 in 10.0 mi WNW 17.3 mph 27.6 mph N/A   Clear
10:54 AM 61.0 °F - 27.0 °F 27% 29.90 in 10.0 mi NNW 15.0 mph 24.2 mph N/A   Clear
11:54 AM 62.1 °F - 27.0 °F 26% 29.91 in 10.0 mi NW 10.4 mph 19.6 mph N/A   Clear
12:54 PM 64.0 °F - 27.0 °F 25% 29.90 in 10.0 mi NNW 15.0 mph 25.3 mph N/A   Clear
1:54 PM 63.0 °F - 24.1 °F 23% 29.90 in 10.0 mi NNW 10.4 mph 23.0 mph N/A   Clear
2:54 PM 62.1 °F - 24.1 °F 23% 29.90 in 10.0 mi NW 10.4 mph 17.3 mph N/A   Clear
3:54 PM 63.0 °F - 24.1 °F 23% 29.88 in 10.0 mi WNW 11.5 mph - N/A   Clear
4:54 PM 66.0 °F - 21.9 °F 19% 29.86 in 10.0 mi WNW 15.0 mph 23.0 mph N/A   Clear
5:54 PM 66.0 °F - 18.0 °F 16% 29.86 in 10.0 mi NW 15.0 mph 25.3 mph N/A   Clear
6:54 PM 64.0 °F - 19.0 °F 18% 29.86 in 10.0 mi NW 9.2 mph - N/A   Scattered Clouds
7:54 PM 62.1 °F - 18.0 °F 18% 29.86 in 10.0 mi NW 9.2 mph 21.9 mph N/A   Partly Cloudy
8:54 PM 59.0 °F - 23.0 °F 25% 29.87 in 10.0 mi NNW 12.7 mph 23.0 mph N/A   Mostly Cloudy
9:54 PM 55.0 °F - 21.9 °F 28% 29.95 in 10.0 mi NNW 4.6 mph - N/A   Partly Cloudy
10:54 PM 52.0 °F - 21.9 °F 31% 29.96 in 10.0 mi North 6.9 mph - N/A   Partly Cloudy
11:54 PM 51.1 °F - 23.0 °F 33% 29.98 in 10.0 mi South 4.6 mph - N/A   Mostly Cloudy